SWA1377 KCLE-KMCO

Flight info

Callsign SWA1377
Flight time N/A
Altitude 38000
Route CAVVS5 APE Q149 BURGG IRQ WHYYT GRNCH5
Aircraft B737/M-SADE2E3GIJ4RWZ/LB1D1

Departure

Time 2026-05-07 09:47
Airport Cleveland Hopkins International Airport (KCLE)

Arrival

Time N/A
Airport Orlando International Airport (KMCO)
Time Latitude Longitude Altitude Speed Heading
2026-05-07 09:36 41.40931 -81.84044 807 ft 0 kts 134°
2026-05-07 09:40 41.40935 -81.84050 807 ft 2 kts 134°
2026-05-07 09:41 41.40947 -81.84066 807 ft 2 kts 134°
2026-05-07 09:41 41.40958 -81.84081 807 ft 2 kts 135°
2026-05-07 09:41 41.40971 -81.84093 807 ft 2 kts 175°
2026-05-07 09:41 41.40982 -81.84088 807 ft 1 kts 229°
2026-05-07 09:42 41.40984 -81.84085 807 ft 0 kts 231°
2026-05-07 09:44 41.40982 -81.84088 807 ft 2 kts 238°
2026-05-07 09:44 41.41005 -81.84143 807 ft 13 kts 310°
2026-05-07 09:44 41.41057 -81.84261 807 ft 15 kts 277°
2026-05-07 09:44 41.41077 -81.84395 807 ft 14 kts 305°
2026-05-07 09:45 41.41148 -81.84483 807 ft 14 kts 315°
2026-05-07 09:45 41.41220 -81.84467 807 ft 13 kts 50°
2026-05-07 09:45 41.41275 -81.84377 807 ft 12 kts 50°
2026-05-07 09:45 41.41329 -81.84291 807 ft 12 kts 50°
2026-05-07 09:46 41.41382 -81.84210 807 ft 11 kts 47°
2026-05-07 09:46 41.41441 -81.84149 807 ft 11 kts 354°
2026-05-07 09:46 41.41501 -81.84200 807 ft 10 kts 316°
2026-05-07 09:46 41.41474 -81.84295 807 ft 25 kts 229°
2026-05-07 09:47 41.41212 -81.84705 807 ft 90 kts 230°
2026-05-07 09:47 41.40686 -81.85538 809 ft 145 kts 229°
2026-05-07 09:47 41.39971 -81.86654 1181 ft 164 kts 230°
2026-05-07 09:47 41.39219 -81.87799 1932 ft 166 kts 229°
2026-05-07 09:48 41.38449 -81.88993 2629 ft 169 kts 230°
2026-05-07 09:48 41.37602 -81.90055 3250 ft 172 kts 212°
2026-05-07 09:48 41.36463 -81.90710 3683 ft 185 kts 200°
2026-05-07 09:48 41.35206 -81.91193 4224 ft 189 kts 199°
2026-05-07 09:49 41.33928 -81.91655 4840 ft 188 kts 199°
2026-05-07 09:49 41.32661 -81.92049 5439 ft 194 kts 193°
2026-05-07 09:49 41.31259 -81.92337 5837 ft 210 kts 194°
2026-05-07 09:49 41.29790 -81.92778 6040 ft 224 kts 198°
2026-05-07 09:50 41.28291 -81.93346 6054 ft 228 kts 200°
2026-05-07 09:50 41.26773 -81.93972 6032 ft 226 kts 201°
2026-05-07 09:50 41.25279 -81.94593 6015 ft 223 kts 201°
2026-05-07 09:50 41.23812 -81.95205 6010 ft 220 kts 201°
2026-05-07 09:51 41.22373 -81.95806 5999 ft 218 kts 201°
2026-05-07 09:51 41.20927 -81.96408 6008 ft 218 kts 201°
2026-05-07 09:51 41.19472 -81.97018 6014 ft 221 kts 201°
2026-05-07 09:51 41.18035 -81.97669 6171 ft 216 kts 204°
2026-05-07 09:52 41.16613 -81.98420 6742 ft 219 kts 206°
2026-05-07 09:52 41.16135 -81.98683 7033 ft 217 kts 206°
2026-05-07 09:52 41.12156 -82.00861 9178 ft 225 kts 206°
2026-05-07 09:53 41.11644 -82.01137 9441 ft 226 kts 206°
2026-05-07 09:53 41.09212 -82.02435 10729 ft 229 kts 207°
2026-05-07 09:53 41.06480 -82.03884 11774 ft 249 kts 208°
2026-05-07 09:54 41.03009 -82.05722 12624 ft 285 kts 208°
2026-05-07 09:54 41.02406 -82.06041 12750 ft 292 kts 208°
2026-05-07 09:54 40.99078 -82.07798 13388 ft 323 kts 208°
2026-05-07 09:55 40.97674 -82.08540 13780 ft 330 kts 208°
2026-05-07 09:55 40.94804 -82.10074 14883 ft 334 kts 210°
2026-05-07 09:55 40.92675 -82.11336 15786 ft 335 kts 212°
2026-05-07 09:55 40.90567 -82.12675 16676 ft 336 kts 213°
2026-05-07 09:56 40.88458 -82.14024 17530 ft 339 kts 213°
2026-05-07 09:56 40.86351 -82.15350 18357 ft 341 kts 213°
2026-05-07 09:56 40.84893 -82.16259 18937 ft 342 kts 213°
2026-05-07 09:56 40.82052 -82.18018 20114 ft 341 kts 214°
2026-05-07 09:57 40.79902 -82.19344 20951 ft 341 kts 214°
2026-05-07 09:57 40.77760 -82.20657 21731 ft 341 kts 214°
2026-05-07 09:57 40.75601 -82.21987 22503 ft 341 kts 214°
2026-05-07 09:57 40.73440 -82.23302 23294 ft 339 kts 215°
2026-05-07 09:58 40.71308 -82.24617 24028 ft 339 kts 216°
2026-05-07 09:58 40.70589 -82.25058 24259 ft 339 kts 216°
2026-05-07 09:58 40.64701 -82.28663 25905 ft 343 kts 216°
2026-05-07 09:59 40.62532 -82.29998 26478 ft 344 kts 217°
2026-05-07 09:59 40.61088 -82.30874 26883 ft 344 kts 217°